Location: *
(43.0167°S, 179.9000°E)
Time: 21:46:35
(UTC+00:00)

AQUARIUS - Pass Details

Date: 12 August 2024
Orbit: 640 x 642 km, 98.0° (Epoch: 19 September)

Event Time Altitude Azimuth Distance (km) Brightness Sun altitude
Rises 18:05:50 0° 358° (N) 2,940 7.7 -9.8°
Reaches altitude 10° 18:08:07 10° 351° (N) 2,039 6.8 -9.4°
Maximum altitude 18:12:22 43° 279° (W) 909 4.5 -8.7°
Drops below altitude 10° 18:16:40 10° 206° (SSW) 2,069 6.4 -7.9°
Sets 18:19:00 0° 199° (SSW) 2,988 7.2 -7.5°
